Showing default

COSMOS 44, 876

Orbit data source: Space-Track

COSMOS 44, 876 is a payload satellite owned by VNIIEM (CIS) in LEO that was launched on Fri, 28 Aug 1964 UTC via a VOSTOK 8A92M launch vehicle from the Tyuratam Missile And Space Complex (TTMTR). Payload-class satellites include a variety of spacecraft equipped with specific instruments for various scientific and technological missions. These include communications satellites like Starlink; space stations such as the ISS; scientific satellites like the Hubble; Earth observation satellites from companies like Planet Labs, Umbra, and HawkEye 360; GPS; miniature CubeSats for education and research; and military/defense satellites.

Loading next visibility...
Identifier
876, 1964-053A
Orbit
LEO
Country
Flag of CISCIS
Related business
Manufacturer
VNIIEM
Mission
Spacecraft
Bus & Motor
METEOR, Unknown motor
Mass
~1,250 kg wet, ~1,250 kg dry
Launch date (UTC)
1964-08-28 (62 years ago)
Launch vehicle
VOSTOK 8A92M
Launch site
Tyuratam Missile And Space Complex (TTMTR)
Object type
Payload
Rocket body
Debris
Shape & HBR
Unknown
Radar Cross Section
Large (>1 m²)

Expand to show TLE details & history
Last TLE update: 5 hours ago

TLE from 5 hours ago
0 COSMOS 44
1   876U 64053A   26122.20522661  .00000234  00000-0  58659-4 0  9992
2   876  65.0584 101.5924 0151939 279.2167  79.1776 14.65714591281938
Epoch: 2026-05-02T04:55Z
TLE epoch observation values (Epoch: 2026-05-02T04:55:31.579Z)
Latitude
-0.00005°
Longitude
167.58433°
Altitude
658.245 km
Speed
7.539 km/s
True Right ascension
06h 46m 22s
True Declination
0° 00' 00"
Sunlit
Object was in daylight at epoch
Visualization orbit readout
Latitude
Unknown
Longitude
Unknown
Altitude
Unknown
Speed
Unknown
Apparent Right ascension
Unknown
Apparent Declination
Unknown
Sunlit
N/A
Visualization observer readout
Local Sidereal Time
17:38:17
Azimuth
Unknown
Elevation
Unknown
Doppler factor
Unknown
Orbital elements
Apogee altitude
780.469 km
Perigee altitude
566.19 km
Semi-major axis
7,051.467 km
Eccentricity
0.01519
Inclination
65.0584°
RAAN
101.5924°
Arg. of periapsis
279.2167°
True anomaly
80.89359°
Mean anomaly
79.1776°
Eccentric anomaly
80.03501°
Mean motion
3.66542 °/min
Orbital period
98.22 mins
BSTAR
0.000058659
Loading maneuver chart data...
Computing Atmospheric mass density...
Loading historical data...
Loading historical data...
Loading historical data...
Loading historical data...
Loading historical data...
Loading historical data...
Loading historical data...
Other satellites on launch #53 in the year 1964 (1964-08-28 UTC)

Documentation

Showing up to 5 results
|